Radiation Dose at Monitoring Post of Fukushima Daini Nuclear Power Station
Date,Time,MP-1(microSv/h),MP-2(microSv/h),MP-3(microSv/h),MP-4(microSv/h),MP-5(microSv/h),MP-6(microSv/h),MP-7(microSv/h),Wind Direction,Wind Velocity(m/s),Rain
2015/11/27,00:00,0.438,0.261,0.479,0.447,0.437,0.215,0.184,west,3.0,No
2015/11/27,00:10,0.440,0.260,0.481,0.444,0.437,0.217,0.184,west,2.9,No
2015/11/27,00:20,0.436,0.260,0.482,0.446,0.434,0.216,0.187,west,2.6,No
2015/11/27,00:30,0.440,0.262,0.482,0.444,0.436,0.216,0.186,southwest,1.7,No
2015/11/27,00:40,0.438,0.261,0.482,0.445,0.436,0.217,0.185,southwest,2.4,No
2015/11/27,00:50,0.440,0.261,0.481,0.446,0.434,0.215,0.186,west-southwest,3.3,No
2015/11/27,01:00,0.440,0.262,0.484,0.444,0.436,0.215,0.186,southwest,3.9,No
2015/11/27,01:10,0.438,0.261,0.480,0.447,0.436,0.216,0.186,west,3.3,No
2015/11/27,01:20,0.441,0.262,0.483,0.445,0.435,0.216,0.186,west,3.6,No
2015/11/27,01:30,0.438,0.260,0.484,0.443,0.437,0.215,0.186,west-northwest,6.0,No
2015/11/27,01:40,0.438,0.260,0.481,0.449,0.435,0.217,0.186,northwest,3.8,No
2015/11/27,01:50,0.441,0.263,0.482,0.444,0.436,0.215,0.186,west-northwest,5.2,No
2015/11/27,02:00,0.438,0.261,0.483,0.448,0.435,0.216,0.186,west-northwest,4.9,No
2015/11/27,02:10,0.440,0.261,0.480,0.447,0.435,0.215,0.185,west-northwest,5.7,No
2015/11/27,02:20,0.439,0.263,0.483,0.444,0.436,0.215,0.186,west-northwest,4.2,No
2015/11/27,02:30,0.439,0.261,0.482,0.447,0.435,0.216,0.185,west-northwest,3.4,No
2015/11/27,02:40,0.440,0.261,0.482,0.447,0.435,0.216,0.185,west,2.8,No
2015/11/27,02:50,0.437,0.261,0.483,0.447,0.436,0.216,0.185,west,4.1,Yes
2015/11/27,03:00,0.440,0.262,0.480,0.449,0.435,0.217,0.187,west,5.2,Yes
2015/11/27,03:10,0.440,0.262,0.482,0.447,0.436,0.217,0.186,west-northwest,4.9,No
2015/11/27,03:20,0.438,0.263,0.483,0.448,0.436,0.217,0.186,north-northwest,1.8,No
2015/11/27,03:30,0.441,0.261,0.481,0.449,0.436,0.217,0.186,north-northwest,3.8,No
2015/11/27,03:40,0.439,0.263,0.486,0.446,0.436,0.216,0.187,northwest,4.3,No
2015/11/27,03:50,0.438,0.262,0.481,0.448,0.436,0.216,0.186,northwest,5.8,No
2015/11/27,04:00,0.441,0.261,0.484,0.448,0.436,0.216,0.186,northwest,6.4,No
2015/11/27,04:10,0.441,0.263,0.485,0.447,0.437,0.216,0.185,west-northwest,7.0,No
2015/11/27,04:20,0.441,0.263,0.481,0.448,0.436,0.216,0.186,west-northwest,8.2,No
2015/11/27,04:30,0.441,0.263,0.484,0.449,0.436,0.216,0.187,west-northwest,6.9,No
2015/11/27,04:40,0.440,0.262,0.484,0.447,0.437,0.217,0.185,west-northwest,6.2,No
2015/11/27,04:50,0.441,0.263,0.482,0.448,0.437,0.216,0.186,west,6.1,No
2015/11/27,05:00,0.442,0.263,0.483,0.448,0.435,0.217,0.186,west,5.9,No
2015/11/27,05:10,0.442,0.263,0.483,0.448,0.434,0.218,0.186,west,6.2,No
2015/11/27,05:20,0.442,0.263,0.482,0.447,0.438,0.218,0.186,west,5.4,No
2015/11/27,05:30,0.443,0.263,0.487,0.448,0.435,0.216,0.187,west-northwest,4.5,No
2015/11/27,05:40,0.441,0.262,0.485,0.448,0.437,0.217,0.185,west-northwest,4.6,No
2015/11/27,05:50,0.441,0.261,0.482,0.446,0.437,0.217,0.186,west-northwest,2.9,No
2015/11/27,06:00,0.441,0.263,0.484,0.450,0.436,0.216,0.186,west-northwest,2.6,No
2015/11/27,06:10,0.440,0.263,0.485,0.448,0.436,0.216,0.186,northwest,3.0,No
2015/11/27,06:20,0.441,0.263,0.482,0.448,0.436,0.217,0.187,north-northwest,2.4,No
2015/11/27,06:30,0.442,0.263,0.486,0.450,0.436,0.218,0.187,north,2.4,No
2015/11/27,06:40,0.440,0.262,0.485,0.449,0.435,0.218,0.187,north-northeast,1.4,No
2015/11/27,06:50,0.439,0.263,0.484,0.448,0.437,0.217,0.186,north,1.1,No
2015/11/27,07:00,0.441,0.262,0.485,0.448,0.437,0.217,0.186,northeast,0.9,No
2015/11/27,07:10,0.441,0.263,0.486,0.450,0.435,0.218,0.187,-,CALM,No
2015/11/27,07:20,0.441,0.265,0.483,0.447,0.435,0.217,0.186,west-southwest,2.5,No
2015/11/27,07:30,0.442,0.263,0.484,0.450,0.438,0.219,0.186,west,3.5,No
2015/11/27,07:40,0.441,0.262,0.486,0.450,0.435,0.217,0.188,northwest,2.9,No
2015/11/27,07:50,0.440,0.263,0.484,0.447,0.435,0.217,0.186,west,3.5,No
2015/11/27,08:00,0.441,0.262,0.483,0.447,0.436,0.217,0.186,north,3.5,No
2015/11/27,08:10,0.442,0.262,0.486,0.449,0.437,0.218,0.185,east-northeast,1.6,No
2015/11/27,08:20,0.439,0.262,0.484,0.447,0.436,0.217,0.187,-,CALM,No
2015/11/27,08:30,0.440,0.263,0.483,0.449,0.437,0.217,0.185,west-northwest,2.8,No
2015/11/27,08:40,0.442,0.263,0.484,0.446,0.437,0.217,0.186,west-northwest,4.2,No
2015/11/27,08:50,0.440,0.263,0.482,0.451,0.435,0.217,0.187,west-northwest,4.5,No
2015/11/27,09:00,0.441,0.264,0.483,0.448,0.438,0.217,0.187,west-southwest,4.0,No
2015/11/27,09:10,0.442,0.263,0.488,0.450,0.437,0.217,0.187,west,4.9,No
2015/11/27,09:20,0.441,0.263,0.486,0.447,0.436,0.218,0.188,west,5.2,No
2015/11/27,09:30,0.445,0.262,0.485,0.451,0.436,0.218,0.187,west-southwest,6.8,No
2015/11/27,09:40,0.441,0.262,0.486,0.446,0.435,0.219,0.187,west-southwest,9.3,No
2015/11/27,09:50,0.442,0.262,0.481,0.451,0.438,0.219,0.188,west-southwest,7.9,No
2015/11/27,10:00,0.440,0.262,-,0.444,0.435,0.220,0.187,west,7.9,No
2015/11/27,10:10,0.442,0.264,-,0.453,0.439,0.220,0.189,west-southwest,9.0,No
2015/11/27,10:20,0.440,0.262,-,0.450,0.435,0.219,0.188,west-southwest,10.0,No
2015/11/27,10:30,0.443,0.265,-,0.454,0.439,0.220,0.190,west-southwest,8.9,No
2015/11/27,10:40,0.438,0.263,-,0.450,0.435,0.220,0.189,west,8.4,No
2015/11/27,10:50,0.443,0.265,-,0.454,0.439,0.221,0.189,west,6.3,No
2015/11/27,11:00,0.440,0.262,-,0.450,0.436,0.218,0.188,west,8.7,No
2015/11/27,11:10,0.445,0.263,-,0.453,0.438,0.221,0.189,west,7.5,No
2015/11/27,11:20,0.441,0.262,-,0.450,0.438,0.220,0.189,west-southwest,8.5,No
2015/11/27,11:30,0.445,0.265,-,0.453,0.439,0.220,0.190,west-northwest,7.7,No
2015/11/27,11:40,0.442,0.264,-,0.449,0.439,0.220,0.189,west,11.1,No
2015/11/27,11:50,0.445,0.265,-,0.453,0.439,0.220,0.188,west-southwest,11.7,No
2015/11/27,12:00,0.443,0.264,-,0.449,0.441,0.221,0.190,west,14.4,No
2015/11/27,12:10,0.446,0.265,-,0.454,0.438,0.220,0.190,west,11.5,No
2015/11/27,12:20,0.441,0.264,-,0.452,0.440,0.221,0.191,west,12.9,No
2015/11/27,12:30,0.446,0.264,-,0.453,0.439,0.221,0.189,west-southwest,13.9,No
2015/11/27,12:40,0.443,0.264,-,0.453,0.441,0.222,0.190,west,10.4,No
2015/11/27,12:50,0.447,0.266,-,0.452,0.441,0.220,0.191,west,9.8,No
2015/11/27,13:00,0.443,0.264,-,0.455,0.441,0.221,0.190,west,12.0,No
2015/11/27,13:10,0.447,0.265,-,0.452,0.443,0.220,0.190,west,11.7,No
2015/11/27,13:20,0.444,0.265,-,0.455,0.440,0.221,0.190,west,13.4,No
2015/11/27,13:30,0.446,0.266,-,0.452,0.442,0.221,0.190,west,11.2,No
2015/11/27,13:40,0.445,0.265,-,0.457,0.439,0.221,0.190,west,12.8,No
2015/11/27,13:50,0.445,0.266,-,0.451,0.442,0.221,0.190,west,12.3,No
2015/11/27,14:00,0.447,0.265,-,0.457,0.442,0.221,0.190,west-northwest,12.0,No
2015/11/27,14:10,0.447,0.264,-,0.455,0.442,0.221,0.190,west-northwest,10.1,No
2015/11/27,14:20,0.449,0.265,-,0.457,0.444,0.221,0.191,west,11.5,No
2015/11/27,14:30,0.448,0.264,-,0.453,0.439,0.222,0.191,west-northwest,8.2,Yes
2015/11/27,14:40,0.447,0.268,-,0.456,0.443,0.220,0.192,west,12.6,No
2015/11/27,14:50,0.448,0.266,-,0.456,0.440,0.222,0.191,west-southwest,16.4,No
2015/11/27,15:00,0.446,0.265,-,0.456,0.441,0.221,0.191,west,14.2,No
2015/11/27,15:10,0.448,0.266,-,0.458,0.443,0.222,0.191,west,13.1,No
2015/11/27,15:20,0.448,0.267,0.469,0.456,0.440,0.221,0.191,west,11.4,No
2015/11/27,15:30,0.446,0.266,0.473,0.456,0.441,0.223,0.191,west-southwest,8.2,No
2015/11/27,15:40,0.449,0.266,0.472,0.458,0.441,0.221,0.191,west-northwest,7.6,No
2015/11/27,15:50,0.448,0.267,0.471,0.455,0.438,0.222,0.191,west,10.7,No
2015/11/27,16:00,0.446,0.265,0.474,0.457,0.440,0.222,0.191,west-northwest,6.5,No
2015/11/27,16:10,0.447,0.267,0.471,0.456,0.441,0.222,0.191,west-northwest,5.1,No
2015/11/27,16:20,0.447,0.266,0.470,0.454,0.440,0.221,0.191,west-northwest,7.1,No
2015/11/27,16:30,0.446,0.265,0.474,0.457,0.440,0.222,0.192,west-northwest,12.6,No
2015/11/27,16:40,0.449,0.265,0.471,0.456,0.440,0.221,0.192,west,15.8,No
2015/11/27,16:50,0.448,0.266,0.470,0.455,0.441,0.222,0.190,west-northwest,13.1,No
2015/11/27,17:00,0.448,0.266,0.474,0.456,0.440,0.223,0.191,west,14.8,No
2015/11/27,17:10,0.450,0.265,0.471,0.458,0.442,0.221,0.192,west,14.2,No
2015/11/27,17:20,0.447,0.266,0.472,0.456,0.442,0.222,0.192,west,13.7,No
2015/11/27,17:30,0.447,0.265,0.477,0.456,0.440,0.221,0.191,west,13.7,No
2015/11/27,17:40,0.451,0.265,0.472,0.456,0.439,0.222,0.192,west-northwest,17.4,No
2015/11/27,17:50,0.449,0.265,0.471,0.456,0.440,0.222,0.191,west-northwest,16.1,No
2015/11/27,18:00,0.448,0.266,0.475,0.454,0.440,0.222,0.191,west,15.9,No
2015/11/27,18:10,0.449,0.265,0.471,0.456,0.439,0.222,0.191,west,19.6,No
2015/11/27,18:20,0.449,0.266,0.471,0.456,0.438,0.222,0.193,west-northwest,17.9,No
2015/11/27,18:30,0.446,0.266,0.475,0.454,0.440,0.222,0.191,west-northwest,16.0,No
2015/11/27,18:40,0.449,0.266,0.473,0.456,0.441,0.222,0.193,west,14.4,No
2015/11/27,18:50,0.451,0.266,0.470,0.455,0.439,0.222,0.193,west,14.4,No
2015/11/27,19:00,0.447,0.264,0.476,0.456,0.440,0.223,0.192,west-northwest,12.0,No
2015/11/27,19:10,0.450,0.266,0.473,0.454,0.442,0.223,0.191,west,16.2,No
2015/11/27,19:20,0.450,0.265,0.472,0.455,0.439,0.222,0.192,west,13.3,No
2015/11/27,19:30,0.449,0.265,0.474,0.455,0.440,0.223,0.192,west,15.6,No
2015/11/27,19:40,0.450,0.267,0.473,0.456,0.440,0.221,0.192,west,12.5,No
2015/11/27,19:50,0.450,0.265,0.470,0.457,0.441,0.223,0.191,west-northwest,15.3,No
2015/11/27,20:00,0.448,0.265,0.473,0.454,0.439,0.223,0.192,west-northwest,12.9,No
2015/11/27,20:10,0.451,0.264,0.472,0.455,0.441,0.222,0.191,west-northwest,13.7,No
2015/11/27,20:20,0.450,0.266,0.470,0.456,0.442,0.223,0.192,west-northwest,12.8,No
2015/11/27,20:30,0.449,0.265,0.473,0.457,0.439,0.222,0.191,west-northwest,12.0,No
2015/11/27,20:40,0.449,0.265,0.474,0.455,0.440,0.222,0.191,west,10.9,No
2015/11/27,20:50,0.451,0.265,0.471,0.457,0.439,0.222,0.191,west,14.7,No
2015/11/27,21:00,0.448,0.266,0.474,0.455,0.440,0.222,0.192,west,11.1,No
2015/11/27,21:10,0.448,0.265,0.474,0.454,0.438,0.222,0.192,west,10.6,No
2015/11/27,21:20,0.450,0.265,0.470,0.456,0.441,0.222,0.192,west,12.3,No
2015/11/27,21:30,0.447,0.267,0.473,0.456,0.440,0.222,0.193,west,7.8,No
2015/11/27,21:40,0.449,0.267,0.474,0.455,0.439,0.222,0.191,west,5.9,No
2015/11/27,21:50,0.450,0.266,0.473,0.457,0.440,0.222,0.191,west,5.5,No
2015/11/27,22:00,0.448,0.267,0.473,0.456,0.440,0.223,0.191,west-southwest,6.0,No
2015/11/27,22:10,0.448,0.267,0.474,0.456,0.441,0.222,0.192,southwest,3.1,No
2015/11/27,22:20,0.451,0.267,0.472,0.456,0.439,0.224,0.191,south-southwest,2.3,No
2015/11/27,22:30,0.449,0.266,0.470,0.457,0.440,0.221,0.192,south,2.1,No
2015/11/27,22:40,0.448,0.266,0.475,0.457,0.441,0.222,0.192,south,2.8,No
2015/11/27,22:50,0.450,0.265,0.472,0.457,0.439,0.223,0.192,south-southwest,3.7,No
2015/11/27,23:00,0.449,0.266,0.471,0.457,0.439,0.221,0.191,south,4.1,No
2015/11/27,23:10,0.448,0.266,0.473,0.455,0.442,0.222,0.193,south-southwest,3.6,No
2015/11/27,23:20,0.450,0.267,0.474,0.456,0.440,0.223,0.192,south-southwest,4.4,No
2015/11/27,23:30,0.448,0.267,0.472,0.457,0.439,0.222,0.192,south-southwest,4.0,No
2015/11/27,23:40,0.446,0.266,0.474,0.456,0.440,0.222,0.193,south-southwest,4.5,No
2015/11/27,23:50,0.449,0.265,0.472,0.455,0.440,0.222,0.192,south-southwest,3.3,No
